Flag for Germany Weather past 2 weeks in Freital, Saxony, Germany

Now
62 °F

Clear.


Feels Like: 62 °F
Forecast: 64 / 74 °F
Wind: 5 mph from South

Location: Dresden-Klotzsche

Current Time: Jul 7, 2015 at 2:30:18 AM

Latest Report: Jul 7, 2015 at 2:00 AM


Visibility: 22 mi

Pressure: 30.09 "Hg

Humidity: 81%

Dew point: 56 °F

Location of FreitalLocation

Historic Weather in Freital — Graph

°F

Freital temperature yesterday

Maximum temperature yesterday: 79 °F (at 12:00 AM)
Minimum temperature yesterday: 65 °F (at 9:00 AM)
Average temperature yesterday: 72 °F

Past Weeks' High & Low Weather Summary

 TemperatureHumidityPressure
High97 °F (Jul 5, 4:00 PM)97% (Jul 6, 7:00 AM)30.25 "Hg (Jul 6, 7:00 AM)
Low48 °F (Jun 25, 6:00 AM)26% (Jul 5, 2:00 PM)29.65 "Hg (Jun 23, 6:00 AM)
Average68 °F63%30.08 "Hg
* Reported Jun 22 1:00 AM — Jul 7 1:00 AM, Freital, Weather by CustomWeather, © 2015

Note: Actual official high and low records may vary slightly from our data, if they occured in-between our weather recording intervals... More about our weather records

Advertising

Freital weather history for previous 24 hours

 ConditionsComfort  
Time TempWeatherWind HumidityBarometerVisibility
1:00 AM
Tue, Jul 7
64 °FClear.2 mph71%30.10 "Hg22 mi
12:00 AM65 °FClear.1 mph66%30.10 "Hg22 mi
10:00 PM
Mon, Jul 6
70 °FPassing clouds.1 mph52%30.09 "Hg25 mi
9:00 PM73 °FPassing clouds.1 mph47%30.08 "Hg28 mi
8:00 PM75 °FSunny.3 mph44%30.08 "Hg28 mi
7:00 PM76 °FPassing clouds.5 mph41%30.09 "Hg28 mi
6:00 PM76 °FPassing clouds.5 mph43%30.09 "Hg28 mi
4:00 PM74 °FScattered clouds.6 mph48%30.13 "Hg25 mi
3:00 PM74 °FPartly sunny.7 mph51%30.12 "Hg25 mi
2:00 PM72 °FPartly sunny.5 mph60%30.13 "Hg19 mi
1:00 PM69 °FOvercast.6 mph61%30.14 "Hg17 mi
12:00 PM69 °FOvercast.6 mph69%30.14 "Hg16 mi
10:00 AM65 °FOvercast.8 mph85%30.12 "Hg14 mi
9:00 AM65 °FOvercast.6 mph90%30.10 "Hg11 mi
8:00 AM68 °FMild.7 mph96%30.06 "HgN/A
7:00 AM68 °FThunderstorms. Low clouds.5 mph97%30.03 "Hg10 mi
4:00 AM69 °FOvercast.6 mph86%29.93 "Hg22 mi
3:00 AM69 °FLight rain. Overcast.3 mph93%30.01 "Hg12 mi
2:00 AM72 °FThunderstorms. Overcast.2 mph78%29.98 "Hg11 mi
Weather by CustomWeather, © 2015

See weather overviewHow to use our weather pages